Location: Arena
(42.5007°N, 9.4650°E)
Time: 00:25:50
(UTC+00:00)

Cosmos 2369 Rocket - Pass Details

Date: 09 April 2020
Orbit: 829 x 852 km, 71.0° (Epoch: 02 June)

Event Time Altitude Azimuth Distance (km) Brightness Sun altitude
Rises 18:43:13 0° 328° (NNW) 3,418 6.3 -8.9°
Reaches altitude 10° 18:45:49 10° 321° (NW) 2,475 5.7 -9.4°
Maximum altitude 18:51:01 38° 255° (WSW) 1,257 3.7 -10.3°
Drops below altitude 10° 18:56:10 10° 188° (S) 2,445 4.5 -11.2°
Sets 18:58:43 0° 180° (S) 3,371 5.1 -11.6°
